Time,TemperatureF,DewpointF,PressureIn,WindDirection,WindDirectionDegrees,WindSpeedMPH,WindSpeedGustMPH,Humidity,HourlyPrecipIn,Conditions,Clouds,dailyrainin,SoftwareType,DateUTC
2013-04-04 00:01:00,52.0,46.0,29.90,SE,143,1.0,2.0,80,0.00,,,0.00,,2013-04-04 07:01:00,
2013-04-04 00:12:00,52.0,46.0,29.90,SE,143,1.0,2.0,80,0.00,,,0.00,,2013-04-04 07:12:00,
2013-04-04 00:21:00,52.0,45.0,29.90,SE,146,1.0,2.0,78,0.00,,,0.00,,2013-04-04 07:21:00,
2013-04-04 00:32:00,51.0,45.0,29.90,SSE,161,1.0,2.0,79,0.00,,,0.00,,2013-04-04 07:32:00,
2013-04-04 00:42:00,51.0,45.0,29.90,SSE,161,1.0,2.0,79,0.00,,,0.00,,2013-04-04 07:42:00,
2013-04-04 00:52:00,52.0,46.0,29.89,ESE,106,0.0,2.0,80,0.00,,,0.00,,2013-04-04 07:52:00,
2013-04-04 01:02:00,51.0,45.0,29.89,ESE,118,1.0,2.0,79,0.00,,,0.00,,2013-04-04 08:02:00,
2013-04-04 01:12:00,51.0,45.0,29.89,ESE,118,1.0,2.0,79,0.00,,,0.00,,2013-04-04 08:12:00,
2013-04-04 01:22:00,51.0,45.0,29.89,ESE,118,0.0,1.0,81,0.00,,,0.00,,2013-04-04 08:22:00,
2013-04-04 01:32:00,51.0,45.0,29.89,NNW,347,1.0,4.0,81,0.00,,,0.00,,2013-04-04 08:32:00,
2013-04-04 01:42:00,51.0,45.0,29.89,NNW,347,1.0,4.0,81,0.00,,,0.00,,2013-04-04 08:42:00,
2013-04-04 01:52:00,50.0,45.0,29.90,WSW,238,1.0,4.0,84,0.00,,,0.00,,2013-04-04 08:52:00,
2013-04-04 02:02:00,49.0,45.0,29.91,WSW,251,2.0,9.0,86,0.00,,,0.00,,2013-04-04 09:02:00,
2013-04-04 02:12:00,49.0,45.0,29.91,WSW,251,2.0,9.0,86,0.00,,,0.00,,2013-04-04 09:12:00,
2013-04-04 02:22:00,49.0,46.0,29.91,West,273,2.0,5.0,88,0.00,,,0.00,,2013-04-04 09:22:00,
2013-04-04 02:33:00,48.0,45.0,29.91,WNW,296,0.0,6.0,89,0.00,,,0.00,,2013-04-04 09:33:00,
2013-04-04 02:43:00,48.0,45.0,29.91,WNW,296,0.0,6.0,89,0.00,,,0.00,,2013-04-04 09:43:00,
2013-04-04 02:52:00,47.0,45.0,29.89,SW,222,0.0,5.0,91,0.01,,,0.01,,2013-04-04 09:52:00,
2013-04-04 03:03:00,47.0,45.0,29.89,NNW,327,1.0,3.0,93,0.05,,,0.05,,2013-04-04 10:03:00,
2013-04-04 03:12:00,47.0,45.0,29.89,NNW,327,1.0,3.0,93,0.05,,,0.05,,2013-04-04 10:12:00,
2013-04-04 03:23:00,47.0,45.0,29.89,ENE,65,0.0,3.0,94,0.09,,,0.09,,2013-04-04 10:23:00,
2013-04-04 03:32:00,47.0,45.0,29.88,SE,125,1.0,2.0,94,0.13,,,0.13,,2013-04-04 10:32:00,
2013-04-04 03:53:00,47.0,46.0,29.87,SE,143,1.0,2.0,95,0.16,,,0.17,,2013-04-04 10:53:00,
2013-04-04 04:02:00,47.0,46.0,29.88,SE,142,0.0,2.0,95,0.16,,,0.21,,2013-04-04 11:02:00,
2013-04-04 04:12:00,47.0,46.0,29.88,SE,142,0.0,2.0,95,0.16,,,0.21,,2013-04-04 11:12:00,
2013-04-04 04:22:00,47.0,46.0,29.88,WNW,296,2.0,4.0,95,0.14,,,0.23,,2013-04-04 11:22:00,
2013-04-04 04:32:00,47.0,46.0,29.88,SW,222,0.0,3.0,95,0.12,,,0.25,,2013-04-04 11:32:00,
2013-04-04 04:42:00,47.0,46.0,29.88,SW,222,0.0,3.0,95,0.12,,,0.25,,2013-04-04 11:42:00,
2013-04-04 04:52:00,47.0,46.0,29.89,WNW,293,0.0,2.0,95,0.10,,,0.27,,2013-04-04 11:52:00,
2013-04-04 05:02:00,47.0,46.0,29.88,North,355,0.0,2.0,95,0.10,,,0.31,,2013-04-04 12:02:00,
2013-04-04 05:12:00,47.0,46.0,29.88,North,355,0.0,2.0,95,0.10,,,0.31,,2013-04-04 12:12:00,
2013-04-04 05:22:00,47.0,46.0,29.88,North,355,1.0,2.0,95,0.15,,,0.38,,2013-04-04 12:22:00,
2013-04-04 05:32:00,46.0,45.0,29.88,NNE,26,0.0,3.0,95,0.18,,,0.43,,2013-04-04 12:32:00,
2013-04-04 05:42:00,46.0,45.0,29.88,NNE,26,0.0,3.0,95,0.18,,,0.43,,2013-04-04 12:42:00,
2013-04-04 05:52:00,46.0,45.0,29.88,NNE,26,0.0,3.0,95,0.18,,,0.43,,2013-04-04 12:52:00,
2013-04-04 06:02:00,47.0,46.0,29.88,NE,49,0.0,1.0,96,0.19,,,0.50,,2013-04-04 13:02:00,
2013-04-04 06:12:00,47.0,46.0,29.88,NE,49,0.0,1.0,96,0.19,,,0.50,,2013-04-04 13:12:00,
2013-04-04 06:22:00,47.0,46.0,29.88,NE,50,0.0,1.0,96,0.14,,,0.52,,2013-04-04 13:22:00,
2013-04-04 06:32:00,47.0,46.0,29.87,ESE,121,0.0,2.0,96,0.13,,,0.56,,2013-04-04 13:32:00,
2013-04-04 06:42:00,47.0,46.0,29.87,ESE,121,0.0,2.0,96,0.13,,,0.56,,2013-04-04 13:42:00,
2013-04-04 06:52:00,47.0,46.0,29.87,NE,40,2.0,3.0,96,0.12,,,0.59,,2013-04-04 13:52:00,
2013-04-04 07:02:00,47.0,46.0,29.87,SSW,209,0.0,3.0,96,0.11,,,0.61,,2013-04-04 14:02:00,
2013-04-04 07:12:00,47.0,46.0,29.87,SSW,209,0.0,3.0,96,0.11,,,0.61,,2013-04-04 14:12:00,
2013-04-04 07:22:00,47.0,46.0,29.89,SSW,202,0.0,2.0,97,0.10,,,0.62,,2013-04-04 14:22:00,
2013-04-04 07:32:00,48.0,47.0,29.88,NE,34,0.0,4.0,97,0.09,,,0.65,,2013-04-04 14:32:00,
2013-04-04 07:42:00,48.0,47.0,29.88,NE,34,0.0,4.0,97,0.09,,,0.65,,2013-04-04 14:42:00,
2013-04-04 07:52:00,48.0,47.0,29.89,ESE,117,0.0,2.0,97,0.06,,,0.65,,2013-04-04 14:52:00,
2013-04-04 08:02:00,48.0,47.0,29.90,ESE,103,0.0,2.0,97,0.05,,,0.66,,2013-04-04 15:02:00,
2013-04-04 08:12:00,48.0,47.0,29.90,ESE,103,0.0,2.0,97,0.05,,,0.66,,2013-04-04 15:12:00,
2013-04-04 08:22:00,48.0,47.0,29.91,ESE,115,0.0,3.0,97,0.05,,,0.67,,2013-04-04 15:22:00,
2013-04-04 08:33:00,48.0,47.0,29.91,SSW,205,0.0,2.0,97,0.02,,,0.67,,2013-04-04 15:33:00,
2013-04-04 08:43:00,48.0,47.0,29.91,SSW,205,0.0,2.0,97,0.02,,,0.67,,2013-04-04 15:43:00,
2013-04-04 08:53:00,49.0,48.0,29.92,SSE,153,0.0,2.0,97,0.06,,,0.71,,2013-04-04 15:53:00,
2013-04-04 09:02:00,49.0,48.0,29.92,SW,225,0.0,2.0,97,0.06,,,0.72,,2013-04-04 16:02:00,
2013-04-04 09:12:00,49.0,48.0,29.92,SW,225,0.0,2.0,97,0.06,,,0.72,,2013-04-04 16:12:00,
2013-04-04 09:23:00,49.0,48.0,29.92,ENE,63,0.0,5.0,97,0.05,,,0.72,,2013-04-04 16:23:00,
2013-04-04 09:32:00,50.0,49.0,29.93,ESE,117,0.0,2.0,97,0.08,,,0.75,,2013-04-04 16:32:00,
2013-04-04 09:42:00,50.0,49.0,29.93,ESE,117,0.0,2.0,97,0.08,,,0.75,,2013-04-04 16:42:00,
2013-04-04 09:52:00,50.0,49.0,29.93,SSW,205,0.0,3.0,97,0.05,,,0.76,,2013-04-04 16:52:00,
2013-04-04 10:02:00,50.0,49.0,29.93,ENE,57,1.0,4.0,97,0.05,,,0.77,,2013-04-04 17:02:00,
2013-04-04 10:13:00,50.0,49.0,29.93,ENE,57,1.0,4.0,97,0.05,,,0.77,,2013-04-04 17:13:00,
2013-04-04 10:22:00,51.0,50.0,29.94,East,92,1.0,2.0,97,0.04,,,0.77,,2013-04-04 17:22:00,
2013-04-04 10:33:00,51.0,50.0,29.94,East,92,1.0,2.0,97,0.04,,,0.77,,2013-04-04 17:33:00,
2013-04-04 10:42:00,51.0,50.0,29.94,East,92,1.0,2.0,97,0.04,,,0.77,,2013-04-04 17:42:00,
2013-04-04 10:52:00,53.0,52.0,29.95,SSE,147,0.0,3.0,97,0.04,,,0.80,,2013-04-04 17:52:00,
2013-04-04 11:02:00,53.0,52.0,29.95,SSW,198,0.0,2.0,96,0.03,,,0.80,,2013-04-04 18:02:00,
2013-04-04 11:12:00,53.0,52.0,29.95,SSW,198,0.0,2.0,96,0.03,,,0.80,,2013-04-04 18:12:00,
2013-04-04 11:22:00,54.0,53.0,29.95,WSW,257,1.0,3.0,96,0.03,,,0.80,,2013-04-04 18:22:00,
2013-04-04 11:32:00,54.0,53.0,29.96,East,94,1.0,5.0,96,0.02,,,0.80,,2013-04-04 18:32:00,
2013-04-04 11:42:00,54.0,53.0,29.96,East,94,1.0,5.0,96,0.02,,,0.80,,2013-04-04 18:42:00,
2013-04-04 11:52:00,54.0,52.0,29.96,East,91,1.0,4.0,94,0.01,,,0.81,,2013-04-04 18:52:00,
2013-04-04 12:02:00,54.0,53.0,29.96,NE,48,0.0,3.0,95,0.02,,,0.82,,2013-04-04 19:02:00,
2013-04-04 12:12:00,54.0,53.0,29.96,NE,48,0.0,3.0,95,0.02,,,0.82,,2013-04-04 19:12:00,
2013-04-04 12:22:00,55.0,54.0,29.96,NNE,21,0.0,4.0,95,0.02,,,0.82,,2013-04-04 19:22:00,
2013-04-04 12:32:00,56.0,54.0,29.96,North,350,2.0,6.0,94,0.03,,,0.83,,2013-04-04 19:32:00,
2013-04-04 12:42:00,56.0,54.0,29.96,North,350,2.0,6.0,94,0.03,,,0.83,,2013-04-04 19:42:00,
2013-04-04 12:52:00,56.0,54.0,29.96,WSW,252,3.0,6.0,94,0.02,,,0.83,,2013-04-04 19:52:00,
2013-04-04 13:02:00,55.0,53.0,29.96,South,181,3.0,8.0,94,0.02,,,0.84,,2013-04-04 20:02:00,
2013-04-04 13:12:00,55.0,53.0,29.96,South,181,3.0,8.0,94,0.02,,,0.84,,2013-04-04 20:12:00,
2013-04-04 13:22:00,56.0,54.0,29.96,SSW,205,2.0,7.0,94,0.03,,,0.85,,2013-04-04 20:22:00,
2013-04-04 13:32:00,56.0,55.0,29.96,WSW,257,2.0,6.0,96,0.02,,,0.85,,2013-04-04 20:32:00,
2013-04-04 13:42:00,56.0,55.0,29.96,WSW,257,2.0,6.0,96,0.02,,,0.85,,2013-04-04 20:42:00,
2013-04-04 13:52:00,57.0,55.0,29.96,WSW,252,3.0,7.0,94,0.03,,,0.86,,2013-04-04 20:52:00,
2013-04-04 14:02:00,57.0,55.0,29.96,NW,318,2.0,8.0,93,0.03,,,0.87,,2013-04-04 21:02:00,
2013-04-04 14:12:00,57.0,55.0,29.96,NW,318,2.0,8.0,93,0.03,,,0.87,,2013-04-04 21:12:00,
2013-04-04 14:22:00,56.0,55.0,29.96,SW,236,2.0,7.0,95,0.02,,,0.87,,2013-04-04 21:22:00,
2013-04-04 14:32:00,56.0,54.0,29.96,WSW,257,3.0,11.0,93,0.02,,,0.87,,2013-04-04 21:32:00,
2013-04-04 14:42:00,56.0,54.0,29.96,WSW,257,3.0,11.0,93,0.02,,,0.87,,2013-04-04 21:42:00,
2013-04-04 14:52:00,56.0,54.0,29.96,SW,231,3.0,8.0,93,0.01,,,0.87,,2013-04-04 21:52:00,
2013-04-04 15:03:00,56.0,55.0,29.96,NW,307,4.0,8.0,95,0.00,,,0.87,,2013-04-04 22:03:00,
2013-04-04 15:12:00,56.0,55.0,29.96,NW,307,4.0,8.0,95,0.00,,,0.87,,2013-04-04 22:12:00,
2013-04-04 15:22:00,56.0,55.0,29.96,NW,307,4.0,8.0,95,0.00,,,0.87,,2013-04-04 22:22:00,
2013-04-04 15:33:00,55.0,54.0,29.97,WSW,252,4.0,11.0,96,0.00,,,0.87,,2013-04-04 22:33:00,
2013-04-04 15:43:00,55.0,54.0,29.97,WSW,252,4.0,11.0,96,0.00,,,0.87,,2013-04-04 22:43:00,
2013-04-04 15:53:00,56.0,55.0,29.96,SSW,212,2.0,10.0,96,0.00,,,0.87,,2013-04-04 22:53:00,
2013-04-04 16:02:00,57.0,55.0,29.96,SW,215,2.0,10.0,93,0.00,,,0.87,,2013-04-04 23:02:00,
2013-04-04 16:12:00,57.0,55.0,29.96,SW,215,2.0,10.0,93,0.00,,,0.87,,2013-04-04 23:12:00,
2013-04-04 16:22:00,57.0,55.0,29.96,WSW,257,6.0,12.0,93,0.00,,,0.87,,2013-04-04 23:22:00,
2013-04-04 16:32:00,57.0,55.0,29.97,West,271,3.0,12.0,92,0.00,,,0.87,,2013-04-04 23:32:00,
2013-04-04 16:42:00,57.0,55.0,29.97,West,271,3.0,12.0,92,0.00,,,0.87,,2013-04-04 23:42:00,
2013-04-04 16:52:00,56.0,54.0,29.97,SSE,153,4.0,13.0,92,0.00,,,0.87,,2013-04-04 23:52:00,
2013-04-04 17:02:00,55.0,53.0,29.97,SSW,196,2.0,10.0,94,0.00,,,0.87,,2013-04-05 00:02:00,
2013-04-04 17:12:00,55.0,53.0,29.97,SSW,196,2.0,10.0,94,0.00,,,0.87,,2013-04-05 00:12:00,
2013-04-04 17:22:00,54.0,53.0,29.97,WSW,257,3.0,11.0,95,0.00,,,0.87,,2013-04-05 00:22:00,
2013-04-04 17:32:00,54.0,53.0,29.97,WSW,245,4.0,8.0,96,0.00,,,0.87,,2013-04-05 00:32:00,
2013-04-04 17:42:00,54.0,53.0,29.97,WSW,245,4.0,8.0,96,0.00,,,0.87,,2013-04-05 00:42:00,
2013-04-04 17:52:00,54.0,53.0,29.97,WSW,245,3.0,7.0,96,0.00,,,0.87,,2013-04-05 00:52:00,
2013-04-04 18:02:00,54.0,53.0,29.97,West,268,1.0,10.0,96,0.00,,,0.87,,2013-04-05 01:02:00,
2013-04-04 18:12:00,54.0,53.0,29.97,West,268,1.0,10.0,96,0.00,,,0.87,,2013-04-05 01:12:00,
2013-04-04 18:22:00,54.0,53.0,29.97,West,259,4.0,10.0,96,0.00,,,0.87,,2013-04-05 01:22:00,
2013-04-04 18:32:00,54.0,53.0,29.97,South,180,2.0,7.0,96,0.00,,,0.87,,2013-04-05 01:32:00,
2013-04-04 18:42:00,54.0,53.0,29.97,South,180,2.0,7.0,96,0.00,,,0.87,,2013-04-05 01:42:00,
2013-04-04 18:52:00,54.0,53.0,29.96,SW,235,4.0,7.0,96,0.00,,,0.87,,2013-04-05 01:52:00,
2013-04-04 19:02:00,54.0,53.0,29.97,West,264,3.0,8.0,96,0.00,,,0.87,,2013-04-05 02:02:00,
2013-04-04 19:12:00,54.0,53.0,29.97,West,264,3.0,8.0,96,0.00,,,0.87,,2013-04-05 02:12:00,
2013-04-04 19:22:00,53.0,52.0,29.97,WSW,250,2.0,7.0,96,0.00,,,0.87,,2013-04-05 02:22:00,
2013-04-04 19:32:00,53.0,52.0,29.97,WSW,250,2.0,7.0,96,0.00,,,0.87,,2013-04-05 02:32:00,
2013-04-04 19:42:00,53.0,52.0,29.97,WSW,250,2.0,7.0,96,0.00,,,0.87,,2013-04-05 02:42:00,
2013-04-04 19:52:00,53.0,52.0,29.97,WSW,245,1.0,8.0,97,0.00,,,0.87,,2013-04-05 02:52:00,
2013-04-04 20:02:00,53.0,52.0,29.97,West,268,1.0,5.0,97,0.00,,,0.87,,2013-04-05 03:02:00,
2013-04-04 20:12:00,53.0,52.0,29.97,West,268,1.0,5.0,97,0.00,,,0.87,,2013-04-05 03:12:00,
2013-04-04 20:22:00,53.0,52.0,29.97,West,269,3.0,5.0,97,0.01,,,0.88,,2013-04-05 03:22:00,
2013-04-04 20:32:00,53.0,52.0,29.98,WSW,254,2.0,5.0,97,0.02,,,0.89,,2013-04-05 03:32:00,
2013-04-04 20:42:00,53.0,52.0,29.98,WSW,254,2.0,5.0,97,0.02,,,0.89,,2013-04-05 03:42:00,
2013-04-04 20:53:00,52.0,51.0,29.98,West,265,1.0,7.0,96,0.03,,,0.90,,2013-04-05 03:53:00,
2013-04-04 21:02:00,52.0,51.0,29.98,WSW,254,3.0,5.0,97,0.04,,,0.91,,2013-04-05 04:02:00,
2013-04-04 21:12:00,52.0,51.0,29.98,WSW,254,3.0,5.0,97,0.04,,,0.91,,2013-04-05 04:12:00,
2013-04-04 21:22:00,52.0,51.0,29.98,WSW,244,1.0,4.0,96,0.03,,,0.91,,2013-04-05 04:22:00,
2013-04-04 21:32:00,52.0,51.0,29.99,WSW,238,2.0,6.0,97,0.02,,,0.91,,2013-04-05 04:32:00,
2013-04-04 21:42:00,52.0,51.0,29.99,WSW,238,2.0,6.0,97,0.02,,,0.91,,2013-04-05 04:42:00,
2013-04-04 21:52:00,52.0,51.0,29.99,West,280,2.0,7.0,97,0.01,,,0.91,,2013-04-05 04:52:00,
2013-04-04 22:02:00,52.0,51.0,29.99,West,280,2.0,7.0,97,0.01,,,0.91,,2013-04-05 05:02:00,
2013-04-04 22:12:00,52.0,51.0,29.99,West,280,2.0,7.0,97,0.01,,,0.91,,2013-04-05 05:12:00,
2013-04-04 22:22:00,52.0,51.0,30.00,SW,219,1.0,5.0,97,0.01,,,0.92,,2013-04-05 05:22:00,
2013-04-04 22:32:00,52.0,51.0,30.00,WSW,241,1.0,3.0,97,0.01,,,0.92,,2013-04-05 05:32:00,
2013-04-04 22:42:00,52.0,51.0,30.00,WSW,241,1.0,3.0,97,0.01,,,0.92,,2013-04-05 05:42:00,
2013-04-04 22:52:00,52.0,51.0,30.00,West,275,1.0,4.0,97,0.01,,,0.92,,2013-04-05 05:52:00,
2013-04-04 23:02:00,52.0,51.0,30.01,West,273,0.0,2.0,97,0.01,,,0.92,,2013-04-05 06:02:00,
2013-04-04 23:12:00,52.0,51.0,30.01,West,273,0.0,2.0,97,0.01,,,0.92,,2013-04-05 06:12:00,
2013-04-04 23:22:00,52.0,51.0,30.01,West,274,1.0,4.0,97,0.00,,,0.92,,2013-04-05 06:22:00,
2013-04-04 23:32:00,52.0,51.0,30.01,WSW,242,1.0,4.0,97,0.00,,,0.92,,2013-04-05 06:32:00,
2013-04-04 23:42:00,52.0,51.0,30.01,WSW,242,1.0,4.0,97,0.00,,,0.92,,2013-04-05 06:42:00,
2013-04-04 23:52:00,51.0,50.0,30.01,SW,223,2.0,5.0,97,0.01,,,0.93,,2013-04-05 06:52:00,